This is the latest recevied weather packets stored in our database for station/object HB9BTL-13. If no packets are shown the sender has not sent any weather packets the latest 10 day(s).
| Time | Temp. | Humidity | Pressure | Rain* | Wind** | Luminosity | Snow |
|---|---|---|---|---|---|---|---|
| 1777533671 | 12.78° C | 46% | 1023.1 hPa | - | - | - | - |
| 1777532765 | 11.67° C | 44% | 1023.2 hPa | - | - | - | - |
| 1777531860 | 11.67° C | 43% | 1023.1 hPa | - | - | - | - |
| 1777530954 | 11.11° C | 44% | 1023.1 hPa | - | - | - | - |
| 1777530049 | 11.67° C | 45% | 1023.1 hPa | - | - | - | - |
| 1777529143 | 11.11° C | 46% | 1023.1 hPa | - | - | - | - |
| 1777528238 | 10.56° C | 45% | 1023 hPa | - | - | - | - |
| 1777527332 | 10.56° C | 45% | 1022.9 hPa | - | - | - | - |
| 1777526427 | 10.56° C | 44% | 1022.8 hPa | - | - | - | - |
| 1777525521 | 10.56° C | 44% | 1022.6 hPa | - | - | - | - |
| 1777524616 | 10.56° C | 45% | 1022.5 hPa | - | - | - | - |
| 1777523711 | 10.56° C | 45% | 1022.5 hPa | - | - | - | - |
| 1777522806 | 10.56° C | 45% | 1022.5 hPa | - | - | - | - |
| 1777521901 | 10.56° C | 44% | 1022.3 hPa | - | - | - | - |
| 1777520995 | 10.56° C | 44% | 1022 hPa | - | - | - | - |
| 1777520090 | 11.11° C | 42% | 1022.1 hPa | - | - | - | - |
| 1777519184 | 11.67° C | 42% | 1022 hPa | - | - | - | - |
| 1777518279 | 12.22° C | 41% | 1021.9 hPa | - | - | - | - |
| 1777517373 | 12.22° C | 41% | 1021.7 hPa | - | - | - | - |
| 1777516468 | 12.22° C | 41% | 1021.7 hPa | - | - | - | - |
| 1777515563 | 12.78° C | 39% | 1021.5 hPa | - | - | - | - |
| 1777514657 | 12.78° C | 40% | 1021.6 hPa | - | - | - | - |
| 1777513752 | 12.78° C | 40% | 1021.6 hPa | - | - | - | - |
| 1777512846 | 12.22° C | 42% | 1021.4 hPa | - | - | - | - |
| 1777511941 | 12.78° C | 41% | 1021.4 hPa | - | - | - | - |
* Rain since midnight (hover to see other rain measurements)
** Current wind speed in m/s (hover to see current wind gust speed)